Weather History for Thermal, CA

Change the Weather History Date:

Tuesday, March 13, 2012

  Actual Average Record
Temperature  
Mean Temperature 62 °F 64 °F  
Max Temperature 81 °F 81 °F 97 °F (2013)
Min Temperature 42 °F 47 °F 30 °F (1956)
Degree Days  
Heating Degree Days 3 3  
Month to date heating degree days 63 52  
Since 1 July heating degree days 1181 1117  
Cooling Degree Days 0 2  
Month to date cooling degree days 0 17  
Year to date cooling degree days 3 29  
Growing Degree Days 13 (Base 50)    
Moisture  
Dew Point 36 °F    
Average Humidity 43    
Maximum Humidity 71    
Minimum Humidity 14    
Precipitation  
Precipitation 0.00 in 0.02 in 0.13 in (1982)
Month to date precipitation 0.00 0.24  
Year to date precipitation 0.27 1.57  
Since 1 July precipitation 1.26 2.95  
Snow  
Snow 0.00 in - - ()
Month to date snowfall 0.0  
Year to date snowfall 0.0  
Since 1 July snowfall 0.0  
Snow Depth 0.00 in    
Sea Level Pressure  
Sea Level Pressure 29.92 in    
Wind  
Wind Speed 6 mph (NNE)    
Max Wind Speed 20 mph    
Max Gust Speed 23 mph    
Visibility 10 miles    
Events      
T = Trace of Precipitation, MM = Missing Value Source: NWS Daily Summary

Daily Weather History Graph

Daily Weather History Graph

Search for Another Location

Airport:

Trip Planner

Search our weather history database for the weather conditions in past years. The results will help you decide how hot, cold, wet, or windy it might be!

Date:

Astronomy

Mar. 13, 2012 Rise Set
Actual Time 6:56 AM PDT 6:51 PM PDT
Civil Twilight 6:32 AM PDT 7:16 PM PDT
Nautical Twilight 6:03 AM PDT 7:45 PM PDT
Astronomical Twilight 5:34 AM PDT 8:14 PM PDT
Moon 12:09 AM PDT (3/13) 10:32 AM PDT (3/13)
Length of Visible Light 12h 44m
Length of Day
11h 54m
Waning Gibbous, 64% of the Moon is Illuminated
Mar 13
Waning Gibbous
Mar 14
Last Quarter
Mar 22
New
Mar 30
First Quarter
Apr 6
Full

Hourly Weather History & Observations

Time (PDT) Temp. Dew Point Humidity Pressure Visibility Wind Dir Wind Speed Gust Speed Precip Events Conditions
12:52 AM 54.0 °F 39.9 °F 59% 29.92 in 10.0 mi North 3.5 mph - N/A   Clear
1:52 AM 57.0 °F 39.9 °F 53% 29.92 in 10.0 mi NNW 4.6 mph - N/A   Clear
2:52 AM 52.0 °F 39.0 °F 61% 29.92 in 10.0 mi NNW 4.6 mph - N/A   Clear
3:52 AM 50.0 °F 37.9 °F 63% 29.91 in 10.0 mi ENE 3.5 mph - N/A   Clear
4:52 AM 46.9 °F 37.9 °F 71% 29.91 in 10.0 mi Calm Calm - N/A   Clear
5:52 AM 45.0 °F 36.0 °F 71% 29.91 in 10.0 mi Calm Calm - N/A   Clear
6:52 AM 48.0 °F 37.9 °F 68% 29.93 in 10.0 mi North 4.6 mph - N/A   Clear
7:52 AM 48.0 °F 37.9 °F 68% 29.94 in 10.0 mi South 3.5 mph - N/A   Clear
8:52 AM 63.0 °F 37.9 °F 40% 29.96 in 10.0 mi Calm Calm - N/A   Clear
9:52 AM 66.0 °F 39.9 °F 38% 29.97 in 10.0 mi ESE 4.6 mph - N/A   Clear
10:52 AM 71.1 °F 39.0 °F 31% 29.96 in 10.0 mi Calm Calm - N/A   Clear
11:52 AM 73.0 °F 39.0 °F 29% 29.95 in 10.0 mi Calm Calm - N/A   Clear
12:52 PM 75.9 °F 37.9 °F 25% 29.94 in 10.0 mi ESE 5.8 mph - N/A   Clear
1:52 PM 78.1 °F 34.0 °F 20% 29.90 in 10.0 mi ESE 9.2 mph - N/A   Clear
2:52 PM 79.0 °F 30.9 °F 17% 29.88 in 3.0 mi SE 9.2 mph - N/A   Haze
3:52 PM 81.0 °F 27.0 °F 14% 29.87 in 10.0 mi Variable 4.6 mph - N/A   Clear
4:52 PM 80.1 °F 30.0 °F 16% 29.86 in 10.0 mi SE 6.9 mph - N/A   Clear
5:52 PM 78.1 °F 32.0 °F 19% 29.86 in 10.0 mi SSE 4.6 mph - N/A   Clear
6:52 PM 72.0 °F 35.1 °F 26% 29.87 in 10.0 mi Calm Calm - N/A   Clear
7:52 PM 73.0 °F 35.1 °F 25% 29.90 in 10.0 mi NNW 13.8 mph - N/A   Clear
8:52 PM 71.1 °F 37.9 °F 30% 29.91 in 10.0 mi NNW 15.0 mph - N/A   Clear
9:52 PM 69.1 °F 37.0 °F 31% 29.92 in 10.0 mi NNW 13.8 mph - N/A   Clear
10:52 PM 66.9 °F 36.0 °F 32% 29.93 in 10.0 mi NNW 9.2 mph - N/A   Clear
11:52 PM 66.0 °F 37.0 °F 34% 29.93 in 10.0 mi NW 9.2 mph - N/A   Clear